| time (UTC) | temp F | wind direction | speed MPH | gust MPH | rain 1hr in | rain 24hr in | rain mn in | humidity % | barometer mb |
| 20260510202216 | 81 | 285 | 6.0 | 7.0 | 0.00 | 0.00 | 0.00 | 52 | 1015.7 |
| 20260510200215 | 81 | 298 | 2.0 | 7.0 | 0.00 | 0.00 | 0.00 | 52 | 1015.7 |
| 20260510195216 | 81 | 200 | 3.0 | 7.0 | 0.00 | 0.00 | 0.00 | 54 | 1015.8 |
| 20260510193216 | 80 | 211 | 0.0 | 6.0 | 0.00 | 0.00 | 0.00 | 53 | 1015.8 |
| 20260510192215 | 80 | 252 | 7.0 | 9.0 | 0.00 | 0.00 | 0.00 | 54 | 1016.2 |
| 20260510191216 | 80 | 233 | 5.0 | 10.0 | 0.00 | 0.00 | 0.00 | 57 | 1016.2 |
| 20260510190216 | 80 | 205 | 2.0 | 10.0 | 0.00 | 0.00 | 0.00 | 54 | 1016.3 |
| 20260510185215 | 80 | 180 | 3.0 | 4.0 | 0.00 | 0.00 | 0.00 | 52 | 1016.3 |
| 20260510184215 | 80 | 245 | 4.0 | 9.0 | 0.00 | 0.00 | 0.00 | 53 | 1016.4 |
| 20260510183215 | 79 | 217 | 4.0 | 8.0 | 0.00 | 0.00 | 0.00 | 56 | 1016.2 |
| 20260510175215 | 79 | 49 | 2.0 | 5.0 | 0.00 | 0.00 | 0.00 | 51 | 1016.5 |
| 20260510174215 | 78 | 274 | 4.0 | 10.0 | 0.00 | 0.00 | 0.00 | 53 | 1016.5 |
| 20260510173215 | 78 | 219 | 5.0 | 5.0 | 0.00 | 0.00 | 0.00 | 62 | 1016.6 |
| 20260510172214 | 78 | 263 | 7.0 | 8.0 | 0.00 | 0.00 | 0.00 | 62 | 1016.6 |
| 20260510171214 | 77 | 228 | 3.0 | 5.0 | 0.00 | 0.00 | 0.00 | 65 | 1016.8 |
| 20260510170215 | 77 | 157 | 3.0 | 8.0 | 0.00 | 0.00 | 0.00 | 59 | 1017.0 |
| 20260510165215 | 77 | 23 | 1.0 | 4.0 | 0.00 | 0.00 | 0.00 | 56 | 1017.1 |
| 20260510164214 | 76 | 323 | 3.0 | 7.0 | 0.00 | 0.00 | 0.00 | 61 | 1017.1 |
| 20260510162214 | 76 | 80 | 1.0 | 4.0 | 0.00 | 0.00 | 0.00 | 63 | 1017.3 |
| 20260510160214 | 75 | 209 | 2.0 | 4.0 | 0.00 | 0.00 | 0.00 | 62 | 1017.5 |
| 20260510155214 | 75 | 9 | 3.0 | 5.0 | 0.00 | 0.00 | 0.00 | 62 | 1018.0 |
| 20260510154214 | 75 | 265 | 4.0 | 6.0 | 0.00 | 0.00 | 0.00 | 64 | 1017.4 |
| 20260510152214 | 73 | 355 | 4.0 | 7.0 | 0.00 | 0.00 | 0.00 | 69 | 1017.4 |
| 20260510151214 | 73 | 265 | 0.0 | 5.0 | 0.00 | 0.00 | 0.00 | 68 | 1017.4 |
| 20260510150214 | 72 | 23 | 1.0 | 5.0 | 0.00 | 0.00 | 0.00 | 71 | 1017.6 |
| 20260510145214 | 72 | 34 | 3.0 | 6.0 | 0.00 | 0.00 | 0.00 | 73 | 1017.5 |
| 20260510144214 | 72 | 44 | 3.0 | 7.0 | 0.00 | 0.00 | 0.00 | 74 | 1017.5 |
| 20260510143214 | 71 | 28 | 3.0 | 4.0 | 0.00 | 0.00 | 0.00 | 80 | 1017.5 |
| 20260510142214 | 70 | 34 | 1.0 | 4.0 | 0.00 | 0.00 | 0.00 | 79 | 1017.5 |
| 20260510141214 | 70 | 24 | 2.0 | 4.0 | 0.00 | 0.00 | 0.00 | 81 | 1017.6 |
| 20260510140214 | 69 | 339 | 0.0 | 3.0 | 0.00 | 0.00 | 0.00 | 82 | 1017.3 |
| 20260510135213 | 68 | 300 | 1.0 | 3.0 | 0.00 | 0.00 | 0.00 | 85 | 1017.1 |
| 20260510134213 | 68 | 290 | 3.0 | 4.0 | 0.00 | 0.00 | 0.00 | 85 | 1017.2 |
| 20260510133213 | 68 | 111 | 3.0 | 3.0 | 0.00 | 0.00 | 0.00 | 87 | 1017.2 |
| 20260510132213 | 67 | 14 | 1.0 | 2.0 | 0.00 | 0.00 | 0.00 | 87 | 1017.1 |
| 20260510130213 | 67 | 10 | 1.0 | 3.0 | 0.00 | 0.00 | 0.00 | 87 | 1017.1 |
| 20260510125213 | 66 | 9 | 2.0 | 3.0 | 0.00 | 0.00 | 0.00 | 88 | 1017.0 |
| 20260510124213 | 66 | 345 | 3.0 | 4.0 | 0.00 | 0.00 | 0.00 | 89 | 1016.9 |
| 20260510123212 | 66 | 355 | 2.0 | 3.0 | 0.00 | 0.00 | 0.00 | 91 | 1016.7 |
| 20260510122212 | 65 | 334 | 2.0 | 3.0 | 0.00 | 0.00 | 0.00 | 91 | 1016.7 |
| 20260510121212 | 64 | 327 | 2.0 | 4.0 | 0.00 | 0.00 | 0.00 | 91 | 1016.5 |
| 20260510120212 | 64 | 360 | 2.0 | 3.0 | 0.00 | 0.00 | 0.00 | 93 | 1016.3 |
| 20260510115212 | 63 | 336 | 0.0 | 2.0 | 0.00 | 0.00 | 0.00 | 96 | 1016.2 |
| 20260510114212 | 62 | 12 | 0.0 | 2.0 | 0.00 | 0.00 | 0.00 | 96 | 1016.1 |
| 20260510113212 | 61 | 310 | 0.0 | 2.0 | 0.00 | 0.00 | 0.00 | 97 | 1015.8 |
| 20260510112212 | 60 | 333 | 0.0 | 2.0 | 0.00 | 0.00 | 0.00 | 96 | 1015.8 |
| 20260510111212 | 59 | 333 | 0.0 | 1.0 | 0.00 | 0.00 | 0.00 | 96 | 1015.3 |
| 20260510110212 | 59 | 333 | 0.0 | 1.0 | 0.00 | 0.00 | 0.00 | 96 | 1015.1 |
| 20260510105211 | 59 | 333 | 0.0 | 1.0 | 0.00 | 0.00 | 0.00 | 96 | 1015.0 |
| 20260510104212 | 60 | 333 | 0.0 | 0.0 | 0.00 | 0.00 | 0.00 | 96 | 1015.0 |
| 20260510103211 | 60 | 333 | 0.0 | 2.0 | 0.00 | 0.00 | 0.00 | 96 | 1014.8 |
| 20260510102212 | 60 | 333 | 2.0 | 2.0 | 0.00 | 0.00 | 0.00 | 96 | 1014.8 |
| 20260510100212 | 60 | 322 | 2.0 | 2.0 | 0.00 | 0.00 | 0.00 | 96 | 1014.7 |
| 20260510094211 | 61 | 313 | 0.0 | 0.0 | 0.00 | 0.00 | 0.00 | 95 | 1014.4 |
| 20260510093211 | 61 | 313 | 0.0 | 1.0 | 0.00 | 0.00 | 0.00 | 95 | 1014.5 |
| 20260510092211 | 61 | 334 | 1.0 | 2.0 | 0.00 | 0.00 | 0.00 | 95 | 1014.2 |
| 20260510091211 | 61 | 306 | 2.0 | 2.0 | 0.00 | 0.00 | 0.00 | 95 | 1014.3 |
| 20260510090211 | 61 | 329 | 1.0 | 3.0 | 0.00 | 0.00 | 0.00 | 95 | 1014.2 |
| 20260510085211 | 61 | 320 | 1.0 | 3.0 | 0.00 | 0.00 | 0.00 | 95 | 1014.0 |
| 20260510083211 | 61 | 328 | 1.0 | 1.0 | 0.00 | 0.00 | 0.00 | 94 | 1013.8 |
| 20260510081211 | 62 | 298 | 2.0 | 4.0 | 0.00 | 0.00 | 0.00 | 95 | 1013.6 |
| 20260510080210 | 62 | 304 | 2.0 | 3.0 | 0.00 | 0.00 | 0.00 | 95 | 1013.6 |
| 20260510075211 | 61 | 302 | 1.0 | 2.0 | 0.00 | 0.00 | 0.00 | 94 | 1013.8 |
| 20260510074210 | 62 | 319 | 2.0 | 3.0 | 0.00 | 0.00 | 0.00 | 94 | 1013.8 |
| 20260510073210 | 62 | 304 | 2.0 | 3.0 | 0.00 | 0.00 | 0.00 | 94 | 1013.7 |
| 20260510072211 | 62 | 260 | 2.0 | 2.0 | 0.00 | 0.00 | 0.00 | 94 | 1013.5 |
| 20260510071210 | 62 | 261 | 3.0 | 3.0 | 0.00 | 0.00 | 0.00 | 94 | 1013.6 |
| 20260510070210 | 62 | 274 | 2.0 | 3.0 | 0.00 | 0.00 | 0.00 | 94 | 1013.6 |
| 20260510064210 | 62 | 261 | 1.0 | 3.0 | 0.00 | 0.00 | 0.00 | 93 | 1013.5 |
| 20260510063210 | 62 | 284 | 1.0 | 3.0 | 0.00 | 0.00 | 0.00 | 93 | 1013.5 |
| 20260510062210 | 63 | 325 | 2.0 | 4.0 | 0.00 | 0.00 | 0.00 | 92 | 1013.5 |
| 20260510061209 | 63 | 289 | 1.0 | 4.0 | 0.00 | 0.00 | 0.00 | 92 | 1013.6 |
| 20260510060210 | 63 | 315 | 4.0 | 5.0 | 0.00 | 0.00 | 0.00 | 92 | 1013.6 |
| 20260510055210 | 63 | 282 | 2.0 | 4.0 | 0.00 | 0.00 | 0.00 | 92 | 1013.6 |
| 20260510054210 | 63 | 276 | 2.0 | 4.0 | 0.00 | 0.00 | 0.00 | 92 | 1013.7 |
| 20260510053209 | 63 | 294 | 3.0 | 4.0 | 0.00 | 0.00 | 0.00 | 92 | 1013.6 |
| 20260510052210 | 63 | 299 | 3.0 | 4.0 | 0.00 | 0.00 | 0.00 | 92 | 1013.8 |
| 20260510051209 | 63 | 300 | 2.0 | 5.0 | 0.00 | 0.00 | 0.00 | 92 | 1013.8 |
| 20260510050209 | 63 | 325 | 0.0 | 4.0 | 0.00 | 0.00 | 0.00 | 92 | 1013.9 |
| 20260510045209 | 63 | 298 | 4.0 | 4.0 | 0.00 | 0.00 | 0.00 | 93 | 1014.1 |
| 20260510044209 | 63 | 291 | 2.0 | 5.0 | 0.00 | 0.00 | 0.00 | 93 | 1014.1 |
| 20260510043209 | 63 | 313 | 0.0 | 2.0 | 0.00 | 0.00 | 0.00 | 93 | 1013.9 |
| 20260510042209 | 62 | 322 | 1.0 | 2.0 | 0.00 | 0.00 | 0.00 | 94 | 1014.3 |
| 20260510041209 | 62 | 317 | 1.0 | 2.0 | 0.00 | 0.00 | 0.00 | 94 | 1014.3 |
| 20260510040239 | 62 | 277 | 0.0 | 0.0 | 0.00 | 0.00 | 0.00 | 94 | 1014.3 |
| 20260510033209 | 62 | 277 | 0.0 | 0.0 | 0.00 | 0.00 | 0.00 | 94 | 1014.3 |
| 20260510032208 | 62 | 277 | 0.0 | 0.0 | 0.00 | 0.00 | 0.00 | 94 | 1014.2 |
| 20260510031209 | 62 | 277 | 0.0 | 0.0 | 0.00 | 0.00 | 0.00 | 94 | 1014.3 |
| 20260510030208 | 62 | 277 | 0.0 | 0.0 | 0.00 | 0.00 | 0.00 | 94 | 1014.2 |
| 20260510025208 | 62 | 277 | 0.0 | 0.0 | 0.00 | 0.00 | 0.00 | 93 | 1014.2 |
| 20260510021208 | 63 | 277 | 0.0 | 0.0 | 0.00 | 0.00 | 0.00 | 92 | 1013.8 |
| 20260510015208 | 64 | 277 | 0.0 | 0.0 | 0.00 | 0.00 | 0.00 | 91 | 1013.7 |
| 20260510014208 | 64 | 277 | 0.0 | 0.0 | 0.00 | 0.00 | 0.00 | 92 | 1013.6 |
| 20260510013238 | 64 | 277 | 0.0 | 0.0 | 0.00 | 0.00 | 0.00 | 91 | 1013.5 |
| 20260510012238 | 64 | 277 | 0.0 | 0.0 | 0.00 | 0.00 | 0.00 | 91 | 1013.4 |
| 20260510011208 | 64 | 277 | 0.0 | 0.0 | 0.00 | 0.00 | 0.00 | 91 | 1013.4 |
| 20260510010238 | 64 | 277 | 0.0 | 0.0 | 0.00 | 0.00 | 0.00 | 91 | 1013.1 |
| 20260510005238 | 65 | 277 | 0.0 | 0.0 | 0.00 | 0.00 | 0.00 | 90 | 1012.9 |
| 20260510004237 | 65 | 277 | 0.0 | 0.0 | 0.00 | 0.00 | 0.00 | 89 | 1012.8 |
| 20260510003238 | 66 | 277 | 0.0 | 0.0 | 0.00 | 0.00 | 0.00 | 87 | 1012.5 |
| 20260510001208 | 66 | 277 | 0.0 | 0.0 | 0.00 | 0.00 | 0.00 | 86 | 1012.7 |
| 20260510000237 | 67 | 277 | 1.0 | 2.0 | 0.00 | 0.00 | 0.00 | 86 | 1012.6 |
| 20260509235238 | 67 | 261 | 2.0 | 3.0 | 0.00 | 0.00 | 0.00 | 85 | 1012.5 |
| 20260509234207 | 67 | 242 | 2.0 | 2.0 | 0.00 | 0.00 | 0.00 | 84 | 1012.4 |
| 20260509232237 | 68 | 283 | 1.0 | 3.0 | 0.00 | 0.00 | 0.00 | 82 | 1012.1 |
| 20260509230237 | 68 | 257 | 2.0 | 3.0 | 0.00 | 0.00 | 0.00 | 81 | 1011.9 |
| 20260509225207 | 68 | 244 | 2.0 | 3.0 | 0.00 | 0.00 | 0.00 | 81 | 1011.8 |
| 20260509224236 | 69 | 257 | 4.0 | 4.0 | 0.00 | 0.00 | 0.00 | 80 | 1011.9 |
| 20260509222236 | 69 | 295 | 3.0 | 3.0 | 0.00 | 0.00 | 0.00 | 78 | 1011.6 |
| 20260509220237 | 69 | 271 | 1.0 | 4.0 | 0.00 | 0.00 | 0.00 | 76 | 1011.7 |
| 20260509215237 | 70 | 245 | 2.0 | 4.0 | 0.00 | 0.00 | 0.00 | 76 | 1011.6 |
| 20260509214236 | 70 | 264 | 4.0 | 5.0 | 0.00 | 0.00 | 0.00 | 76 | 1011.8 |
| 20260509213236 | 70 | 234 | 3.0 | 7.0 | 0.00 | 0.00 | 0.00 | 75 | 1011.7 |
| 20260509212207 | 70 | 210 | 4.0 | 6.0 | 0.00 | 0.00 | 0.00 | 75 | 1011.6 |
| 20260509211207 | 69 | 243 | 3.0 | 4.0 | 0.00 | 0.00 | 0.00 | 74 | 1011.4 |
| 20260509210237 | 70 | 257 | 1.0 | 8.0 | 0.00 | 0.00 | 0.00 | 75 | 1011.6 |
| 20260509205206 | 70 | 210 | 3.0 | 6.0 | 0.00 | 0.00 | 0.00 | 74 | 1011.5 |
| 20260509204236 | 69 | 199 | 0.0 | 4.0 | 0.00 | 0.00 | 0.00 | 74 | 1011.5 |